This is the latest recevied weather packets stored in our database for station/object SV5DDT-12. If no packets are shown the sender has not sent any weather packets the latest 10 day(s).
| Time | Temp. | Humidity | Pressure | Rain* | Wind** | Luminosity | Snow |
|---|---|---|---|---|---|---|---|
| 1777511680 | 23.33° C | 60% | 1015.6 hPa | - | - | - | - |
| 1777510780 | 23.33° C | 61% | 1015.5 hPa | - | - | - | - |
| 1777509880 | 23.33° C | 60% | 1015.4 hPa | - | - | - | - |
| 1777508979 | 23.33° C | 60% | 1015.4 hPa | - | - | - | - |
| 1777508079 | 23.33° C | 60% | 1015.4 hPa | - | - | - | - |
| 1777507179 | 23.33° C | 60% | 1015.5 hPa | - | - | - | - |
| 1777498178 | 23.33° C | 60% | 1016 hPa | - | - | - | - |
| 1777496378 | 23.33° C | 61% | 1016 hPa | - | - | - | - |
| 1777490975 | 22.78° C | 62% | 1015.9 hPa | - | - | - | - |
| 1777487374 | 23.33° C | 63% | 1015.8 hPa | - | - | - | - |
| 1777484696 | 23.33° C | 57% | 1015.3 hPa | - | - | - | - |
| 1777480195 | 23.33° C | 55% | 1014.6 hPa | - | - | - | - |
| 1777478395 | 23.33° C | 56% | 1014.4 hPa | - | - | - | - |
| 1777477495 | 23.33° C | 59% | 1014.5 hPa | - | - | - | - |
| 1777472994 | 23.33° C | 49% | 1014.7 hPa | - | - | - | - |
| 1777471194 | 22.78° C | 45% | 1014.6 hPa | - | - | - | - |
| 1777470294 | 22.78° C | 44% | 1014.6 hPa | - | - | - | - |
| 1777469394 | 22.78° C | 43% | 1014.6 hPa | - | - | - | - |
| 1777468493 | 22.78° C | 45% | 1014.6 hPa | - | - | - | - |
| 1777465793 | 22.78° C | 52% | 1014.9 hPa | - | - | - | - |
| 1777463093 | 22.78° C | 45% | 1015 hPa | - | - | - | - |
| 1777462192 | 22.78° C | 46% | 1015 hPa | - | - | - | - |
| 1777461292 | 22.78° C | 49% | 1015 hPa | - | - | - | - |
| 1777460392 | 22.78° C | 48% | 1015.2 hPa | - | - | - | - |
| 1777458592 | 22.78° C | 52% | 1015.3 hPa | - | - | - | - |
* Rain since midnight (hover to see other rain measurements)
** Current wind speed in m/s (hover to see current wind gust speed)